Flag for Japan Weather past 2 weeks in Utsunomiya, Japan

Now
47 °F

Cool.


Feels Like: 47 °F
Forecast: 25 / 40 °F
Wind: 2 mph from Northwest

Location: Mito

Current Time: Dec 25, 2014 at 12:38:56 PM

Latest Report: Dec 25, 2014 at 11:00 AM


Visibility: N/A

Pressure: 29.88 "Hg

Humidity: 41%

Dew point: 25 °F

Location of UtsunomiyaLocation

Historic Weather in Utsunomiya — Graph

°F

Utsunomiya temperature yesterday

Maximum temperature yesterday: 50 °F (at 2:00 PM)
Minimum temperature yesterday: 28 °F (at 5:00 AM)
Average temperature yesterday: 37 °F

Past Weeks' High & Low Weather Summary

 TemperatureHumidityPressure
High52 °F (Dec 13, 1:00 PM)97% (Dec 11, 9:00 PM)30.46 "Hg (Dec 11, 9:00 PM)
Low26 °F (Dec 15, 4:00 AM)23% (Dec 22, 1:00 PM)29.21 "Hg (Dec 16, 9:00 PM)
Average40 °F65%29.94 "Hg
* Reported Dec 10 11:00 AM — Dec 25 11:00 AM, Utsunomiya, Weather by CustomWeather, © 2014

Note: Actual official high and low records may vary slightly from our data, if they occured in-between our weather recording intervals... More about our weather records

Advertising

Utsunomiya weather history for previous 24 hours

 ConditionsComfort  
Time TempWeatherWind HumidityBarometerVisibility
11:00 AM
Dec 25
47 °FCool.2 mph41%29.88 "HgN/A
10:00 AM46 °FCool.3 mph46%29.91 "HgN/A
9:00 AM42 °FPassing clouds.3 mph62%29.91 "Hg25 mi
8:00 AM38 °FChilly.2 mph72%29.90 "HgN/A
7:00 AM36 °FChilly.2 mph75%29.89 "HgN/A
6:00 AM32 °FChilly.1 mph89%29.88 "HgN/A
5:00 AM36 °FChilly.2 mph79%29.84 "HgN/A
4:00 AM36 °FChilly.3 mph75%29.82 "HgN/A
3:00 AM36 °FPassing clouds.3 mph77%29.80 "Hg19 mi
2:00 AM34 °FChilly.3 mph77%29.80 "HgN/A
1:00 AM31 °FChilly.3 mph89%29.78 "HgN/A
12:00 AM33 °FChilly.1 mph84%29.77 "HgN/A
11:00 PM
Dec 24
33 °FChilly.3 mph89%29.78 "HgN/A
10:00 PM35 °FChilly.2 mph80%29.79 "HgN/A
9:00 PM35 °FPassing clouds.3 mph82%29.81 "Hg12 mi
8:00 PM40 °FChilly.2 mph65%29.83 "HgN/A
7:00 PM40 °FQuite cool.2 mph66%29.84 "HgN/A
6:00 PM42 °FQuite cool.3 mph62%29.85 "HgN/A
5:00 PM44 °FQuite cool.2 mph59%29.86 "HgN/A
4:00 PM47 °FCool.5 mph53%29.87 "HgN/A
3:00 PM49 °FPassing clouds.6 mph51%29.89 "Hg19 mi
2:00 PM50 °FCool.5 mph50%29.91 "HgN/A
1:00 PM45 °FCool.2 mph54%29.94 "HgN/A
12:00 PM42 °FQuite cool.3 mph59%29.99 "HgN/A
Weather by CustomWeather, © 2014

See weather overviewHow to use our weather pages